Regional Weather Roundup
Issued by NWS Charleston, WV

Home | Current Version | Previous Version | Graphics & Text | Print | Product List | Glossary On
Versions: 1 2 3 4 5 6 7 8 9 10 11 12 13 14 15 16 17 18 19 20 21 22 23 24 25 26 27 28 29 30 31 32 33 34 35 36 37 38 39 40 41 42 43 44 45 46 47 48 49 50
000
ASUS41 KRLX 241910
RWRRLX
West Virginia Regional Weather Roundup
National Weather Service Charleston WV
200 PM EST SAT JAN 24 2015

Note: "fair" indicates few or no clouds below 12,000 feet with no
significant weather and/or obstructions to visibility.

WVZ003-242000-
Northern Panhandle of West Virginia

CITY           SKY/WX    TMP DP  RH WIND       PRES   REMARKS
WHEELING       CLOUDY    28  22  78 W12       29.61F
$$

WVZ009-242000-
Northwest West Virginia

CITY           SKY/WX    TMP DP  RH WIND       PRES   REMARKS
PARKERSBURG    CLOUDY    28  25  88 SW6       29.71F FOG
$$

WVZ006-242000-
Western West Virginia

CITY           SKY/WX    TMP DP  RH WIND       PRES   REMARKS
HUNTINGTON     MIX PCPN  30  27  88 SW9       29.74F
$$

WVZ015-242000-
West Central West Virginia

CITY           SKY/WX    TMP DP  RH WIND       PRES   REMARKS
CHARLESTON     LGT SNOW  31  26  82 W10G17    29.72F
$$

WVZ022-031-242000-
North Central West Virginia

CITY           SKY/WX    TMP DP  RH WIND       PRES   REMARKS
CLARKSBURG     CLOUDY    30  25  81 W12       29.64F
MORGANTOWN     CLOUDY    30  23  75 SW6       29.62F
$$

WVZ025-035-042-045-242000-
Southern West Virginia

CITY           SKY/WX    TMP DP  RH WIND       PRES   REMARKS
BECKLEY        CLOUDY    29  23  78 NW10      29.64F
LOGAN          CLOUDY    30  27  86 W8G15     29.72F
BLUEFIELD      CLOUDY    30  23  75 W17G25    29.63F
LEWISBURG      PTSUNNY   32  25  76 W10G23    29.61S
$$

WVZ047-242000-
Northern Mountains of West Virginia

CITY           SKY/WX    TMP DP  RH WIND       PRES   REMARKS
ELKINS         LGT SNOW  29  25  85 W15G23    29.62R FOG
$$

WVZ052-242000-
Eastern Panhandle of West Virginia

CITY           SKY/WX    TMP DP  RH WIND       PRES   REMARKS
MARTINSBURG    CLOUDY    40  29  64 NW7       29.48F
PETERSBURG     CLOUDY    40  30  67 W15       29.54S
$$


USA.gov is the U.S. government's official web portal to all federal, state and local government web resources and services.